Track STARLINK-2068 now! 10-day predictions STARLINK-2068 is classified as:
1 47722U 21017A 21109.83334491 .00024161 00000-0 17594-3 0 9994 2 47722 53.0462 312.8827 0001104 72.5277 33.0999 15.73213771 7952